EST,Max TemperatureF,Mean TemperatureF,Min TemperatureF,Max Dew PointF,MeanDew PointF,Min DewpointF,Max Humidity, Mean Humidity, Min Humidity, Max Sea Level PressureIn, Mean Sea Level PressureIn, Min Sea Level PressureIn, Max VisibilityMiles, Mean VisibilityMiles, Min VisibilityMiles, Max Wind SpeedMPH, Mean Wind SpeedMPH, Max Gust SpeedMPH,PrecipitationIn, CloudCover, Events, WindDirDegrees
2012-11-1,64,50,37,29,18,8,62,31,12,29.94,29.86,29.81,10,10,10,13,6,17,0.00,0,,266
2012-11-2,75,58,42,39,31,21,55,39,27,29.99,29.91,29.82,10,10,10,16,6,22,0.00,0,,271
2012-11-3,73,58,42,46,37,30,79,49,25,30.12,30.03,29.98,10,10,10,7,3,,0.00,0,,250
2012-11-4,69,60,50,52,44,36,77,61,43,30.02,29.97,29.91,10,10,10,10,4,,0.04,2,Rain,46
2012-11-5,61,52,44,41,34,30,71,50,31,30.09,30.04,29.99,10,10,10,10,6,,0.00,2,,50
2012-11-6,48,45,42,37,34,31,80,65,54,30.10,30.02,29.96,10,10,10,15,9,22,0.02,7,Rain,38
2012-11-7,46,44,41,40,37,32,89,79,67,30.01,29.94,29.89,10,8,3,7,3,,0.08,7,Rain,272
2012-11-8,64,50,37,35,29,23,79,45,23,30.16,30.10,30.00,10,10,10,10,5,17,0.00,0,,332
2012-11-9,66,52,37,34,30,25,79,47,21,30.30,30.23,30.16,10,10,10,8,3,,0.00,0,,260
2012-11-10,72,56,39,37,34,29,79,50,21,30.37,30.32,30.26,10,10,10,9,1,,0.00,0,,224
2012-11-11,69,56,43,52,44,35,80,59,44,30.48,30.40,30.37,10,10,10,10,2,,0.00,4,,173
2012-11-12,70,62,55,61,58,53,97,87,65,30.37,30.26,30.18,10,8,2,12,5,21,0.22,7,Rain,194
2012-11-13,61,54,45,59,41,25,94,67,27,30.38,30.26,30.17,10,10,5,16,6,,0.00,5,Rain,24
2012-11-14,51,44,37,29,28,26,73,53,39,30.47,30.39,30.32,10,10,10,15,10,25,0.00,2,,46
2012-11-15,52,44,37,35,33,29,89,68,50,30.35,30.30,30.24,10,10,4,13,8,20,0.19,3,Rain,52
2012-11-16,59,48,36,35,31,28,79,56,31,30.38,30.31,30.27,10,10,10,9,5,,0.00,0,,40
2012-11-17,57,48,39,31,26,22,70,44,25,30.48,30.42,30.38,10,10,10,17,10,28,0.00,0,,38
2012-11-18,60,53,46,40,35,23,68,54,39,30.44,30.39,30.35,10,10,10,18,14,28,0.00,5,,31
2012-11-19,62,55,48,47,43,37,83,67,55,30.34,30.28,30.20,10,10,10,17,11,24,0.00,6,,42
2012-11-20,64,55,46,44,41,40,83,66,41,30.22,30.14,30.06,10,10,10,5,3,,0.00,1,,44
2012-11-21,66,52,39,40,36,32,89,58,31,30.19,30.14,30.09,10,10,10,8,2,,0.00,0,,61
2012-11-22,66,54,41,34,31,27,70,46,24,30.29,30.22,30.17,10,10,10,6,2,,0.00,0,,40
2012-11-23,71,54,37,46,37,28,86,55,30,30.17,30.06,29.96,10,10,10,15,3,23,0.00,1,,261
2012-11-24,54,46,37,27,21,15,60,39,23,30.11,30.05,30.00,10,10,10,13,6,,0.00,0,,358
2012-11-25,54,42,30,20,18,15,64,41,24,30.20,30.12,30.06,10,10,10,10,3,17,0.00,0,,216
2012-11-26,68,52,36,26,22,17,62,33,19,30.21,30.15,30.10,10,10,10,8,4,,0.00,0,,233
2012-11-27,57,54,51,50,39,25,83,59,35,30.22,30.14,30.09,10,10,7,9,5,,0.00,7,Rain,229
2012-11-28,57,50,43,40,34,17,82,57,31,30.38,30.31,30.22,10,10,10,9,5,,0.00,4,,12
2012-11-29,57,46,36,38,30,18,70,53,35,30.47,30.40,30.35,10,10,10,10,2,,0.00,0,,198
2012-11-30,62,48,33,43,36,28,85,65,40,30.40,30.35,30.29,10,10,7,16,4,22,0.00,0,,236